01:40
Airports
History
Links
Donate
Help keep this website running!
PayPal
Bitcoin
This page is community maintained. The information is intended for PC simulator navigation or reference.
Always use approved charts for navigation.
62NE
BeebeEdited 07-Mar-2012
Beebe (62NE)
Culbertson, Nebraska, United States (69024)
4
Lat/Lng:40° 26' 51.03" N / 100° 47' 33.56" W
40.447507 / -100.792655
Elevation:2860'ft / 872mMSL
ID / ICAO:62NE
Runways:1
Longest:36-18
Grass 1,110m / 3,643ft
(Edited 2012-03-07) [ Sign in to Edit ]
Nearby Weather00:53 GMT 2017-12-16
Nearby weather at KMCK, Mc Cook Ben Nelson Rgnl located 19.7 nautical miles from 62NE
Altimeter: 29.81
Visibility: 10.0 statute miles
Wind: 7 knots (from 220°)
Temp: 6°c / 43°f
Humidity: 26.0%

METAR: KMCK 160053Z AUTO 22007KT 10SM CLR 06/M12 A2981 RMK AO2 SLP119 T00611117

(Powered by phpweather)
Nearby VORs <50NM
Nearby NDBs
Runway 36 / 18
Dimensions:1110.4 x 27.4m 3643' x 90'ft
Surface:Grass
Runway 36 [A]Runway 18 [B]
Heading:008°TH 188°TH
Lat:
Lng:
40° 26' 33.32"N
100° 47' 37.24"W
40° 27' 8.73"N
100° 47' 29.87"W
User Notes and Comments
40° 26' 51.03" N / 100° 47' 33.56" W
Distance To
Airport ID:
Nearby Airports
4 Hock 9.1 NM
46V S 185°
(R) Malone M-bar Ranch 19.4 NM
4NE8 WSW 256°
(U) Mc Cook Ben Nelson Rgnl 19.7 NM
KMCK ( WX ) SSE 147°
4 Bakers Acres 21.2 NM
5NE6 SW 229°
(U) Curtis Muni 21.3 NM
47V NE 51°
4 Trenton Muni 21.8 NM
9V2 SW 214°
4 Hoyt 23.4 NM
53V S 182°
VFR Chart
Flight Planning at SkyVector.com